Weather History for Lago Vista, TX

Change the Weather History Date:

Friday, September 13, 2013

  Actual Average (KATT) Record (KATT)
Temperature  
Mean Temperature 84 °F 81 °F  
Max Temperature 96 °F 91 °F 105 °F (2011)
Min Temperature 73 °F 70 °F 52 °F (1902)
Degree Days  
Heating Degree Days 0 0  
Month to date heating degree days 0  
Since 1 July heating degree days 0  
Cooling Degree Days 20 16  
Month to date cooling degree days 226  
Year to date cooling degree days 2620  
Growing Degree Days 34 (Base 50)    
Moisture  
Dew Point 60 °F    
Average Humidity 47    
Maximum Humidity 78    
Minimum Humidity 23    
Precipitation  
Precipitation 0.00 in 0.11 in 2.50 in (1897)
Month to date precipitation 1.46  
Year to date precipitation 23.55  
Snow  
Snow 0.00 in - - ()
Month to date snowfall  
Since 1 July snowfall  
Since 1 September snowfall  
Snow Depth -    
Sea Level Pressure  
Sea Level Pressure 29.95 in    
Wind  
Wind Speed 4 mph (SSE)    
Max Wind Speed 12 mph    
Max Gust Speed 21 mph    
Visibility 10 miles    
Events      
T = Trace of Precipitation, MM = Missing Value Source: NWS Daily Summary

Daily Weather History Graph

Daily Weather History Graph

Search for Another Location

Airport:

Trip Planner

Search our weather history database for the weather conditions in past years. The results will help you decide how hot, cold, wet, or windy it might be!

Date:

Astronomy

Sep. 13, 2013 Rise Set
Actual Time 7:15 AM CDT 7:39 PM CDT
Civil Twilight 6:51 AM CDT 8:03 PM CDT
Nautical Twilight 6:22 AM CDT 8:31 PM CDT
Astronomical Twilight 5:54 AM CDT 9:00 PM CDT
Moon 3:13 PM CDT (9/13) 1:04 AM CDT (9/13)
Length of Visible Light 13h 12m
Length of Day
12h 24m
First Quarter, 61% of the Moon is Illuminated
Sep 13
First Quarter
Sep 19
Full
Sep 26
Last Quarter
Oct 4
New
Oct 11
First Quarter

Hourly Weather History & Observations

Time (CDT) Temp. Heat Index Dew Point Humidity Pressure Visibility Wind Dir Wind Speed Gust Speed Precip Events Conditions
12:15 AM 80.6 °F 81.8 °F 62.6 °F 54% 30.00 in 10.0 mi South 3.5 mph - N/A   Scattered Clouds
12:35 AM 80.6 °F 81.8 °F 62.6 °F 54% 30.01 in 10.0 mi SSE 4.6 mph - N/A   Scattered Clouds
12:55 AM 80.6 °F 81.8 °F 62.6 °F 54% 30.01 in 10.0 mi SSE 5.8 mph - N/A   Scattered Clouds
1:15 AM 78.8 °F - 62.6 °F 57% 30.01 in 10.0 mi SSE 5.8 mph - N/A   Clear
1:35 AM 78.8 °F - 64.4 °F 61% 30.01 in 10.0 mi SSE 4.6 mph - N/A   Clear
1:55 AM 78.8 °F - 64.4 °F 61% 30.00 in 10.0 mi South 5.8 mph - N/A   Clear
2:15 AM 78.8 °F - 64.4 °F 61% 30.01 in 10.0 mi SSW 3.5 mph - N/A   Clear
2:35 AM 77.0 °F - 64.4 °F 65% 30.01 in 10.0 mi Calm Calm - N/A   Clear
2:55 AM 77.0 °F - 64.4 °F 65% 30.00 in 10.0 mi SW 4.6 mph - N/A   Clear
3:15 AM 77.0 °F - 66.2 °F 69% 30.00 in 10.0 mi SW 3.5 mph - N/A   Clear
3:35 AM 77.0 °F - 66.2 °F 69% 30.00 in 10.0 mi SW 3.5 mph - N/A   Clear
3:55 AM 77.0 °F - 66.2 °F 69% 29.99 in 10.0 mi WSW 4.6 mph - N/A   Clear
4:15 AM 77.0 °F - 66.2 °F 69% 29.99 in 10.0 mi WSW 4.6 mph - N/A   Clear
4:35 AM 77.0 °F - 66.2 °F 69% 29.99 in 10.0 mi WSW 5.8 mph - N/A   Clear
4:55 AM 77.0 °F - 66.2 °F 69% 29.99 in 10.0 mi WSW 4.6 mph - N/A   Clear
5:15 AM 77.0 °F - 66.2 °F 69% 29.99 in 10.0 mi West 4.6 mph - N/A   Clear
5:35 AM 77.0 °F - 66.2 °F 69% 29.99 in 10.0 mi West 4.6 mph - N/A   Clear
5:55 AM 77.0 °F - 66.2 °F 69% 29.99 in 10.0 mi West 3.5 mph - N/A   Clear
6:15 AM 75.2 °F - 66.2 °F 73% 29.99 in 10.0 mi West 3.5 mph - N/A   Clear
6:35 AM 75.2 °F - 66.2 °F 73% 29.99 in 10.0 mi West 4.6 mph - N/A   Clear
6:55 AM 75.2 °F - 68.0 °F 78% 30.00 in 10.0 mi West 4.6 mph - N/A   Clear
7:15 AM 73.4 °F - 66.2 °F 78% 30.00 in 10.0 mi West 4.6 mph - N/A   Clear
7:35 AM 73.4 °F - 66.2 °F 78% 30.00 in 10.0 mi WNW 3.5 mph - N/A   Clear
7:55 AM 75.2 °F - 68.0 °F 78% 30.00 in 10.0 mi WNW 3.5 mph - N/A   Clear
8:15 AM 77.0 °F - 68.0 °F 74% 30.00 in 10.0 mi West 3.5 mph - N/A   Clear
8:35 AM 78.8 °F - 68.0 °F 69% 30.00 in 10.0 mi Calm Calm - N/A   Clear
8:55 AM 78.8 °F - 68.0 °F 69% 30.00 in 10.0 mi Calm Calm - N/A   Clear
9:15 AM 80.6 °F 82.7 °F 66.2 °F 61% 30.01 in 10.0 mi Calm Calm - N/A   Clear
9:35 AM 80.6 °F 81.8 °F 62.6 °F 54% 30.01 in 10.0 mi West 3.5 mph - N/A   Clear
9:55 AM 82.4 °F 83.4 °F 62.6 °F 51% 30.01 in 10.0 mi Calm Calm - N/A   Clear
10:15 AM 82.4 °F 82.9 °F 60.8 °F 48% 30.01 in 10.0 mi Calm Calm - N/A   Clear
10:35 AM 87.8 °F 87.6 °F 60.8 °F 40% 30.01 in 10.0 mi ENE 3.5 mph - N/A   Clear
10:55 AM 87.8 °F 87.6 °F 60.8 °F 40% 30.01 in 10.0 mi NNW 5.8 mph - N/A   Clear
11:15 AM 89.6 °F 88.9 °F 59.0 °F 36% 30.00 in 10.0 mi East 3.5 mph - N/A   Clear
11:35 AM 89.6 °F 88.1 °F 57.2 °F 33% 30.00 in 10.0 mi ESE 6.9 mph - N/A   Scattered Clouds
11:55 AM 91.4 °F 89.9 °F 57.2 °F 31% 30.00 in 10.0 mi NE 9.2 mph - N/A   Mostly Cloudy
12:15 PM 89.6 °F 88.1 °F 57.2 °F 33% 29.99 in 10.0 mi ENE 9.2 mph - N/A   Mostly Cloudy
12:35 PM 91.4 °F 89.4 °F 55.4 °F 29% 29.98 in 10.0 mi ENE 5.8 mph - N/A   Mostly Cloudy
12:55 PM 93.2 °F 91.3 °F 55.4 °F 28% 29.98 in 10.0 mi East 6.9 mph - N/A   Scattered Clouds
1:15 PM 91.4 °F 89.4 °F 55.4 °F 29% 29.97 in 10.0 mi East 6.9 mph 16.1 mph N/A   Scattered Clouds
1:35 PM 93.2 °F 90.8 °F 53.6 °F 26% 29.96 in 10.0 mi SE 6.9 mph 20.7 mph N/A   Scattered Clouds
1:55 PM 93.2 °F 91.3 °F 55.4 °F 28% 29.95 in 10.0 mi East 11.5 mph 16.1 mph N/A   Scattered Clouds
2:15 PM 96.8 °F 95.1 °F 55.4 °F 25% 29.94 in 10.0 mi East 4.6 mph 18.4 mph N/A   Mostly Cloudy
2:35 PM 91.4 °F 89.4 °F 55.4 °F 29% 29.93 in 10.0 mi ESE 5.8 mph - N/A   Scattered Clouds
2:55 PM 96.8 °F 94.4 °F 53.6 °F 23% 29.92 in 10.0 mi ESE 6.9 mph 16.1 mph N/A   Scattered Clouds
3:15 PM 95.0 °F 92.7 °F 53.6 °F 25% 29.91 in 10.0 mi Calm Calm - N/A   Scattered Clouds
3:35 PM 95.0 °F 92.7 °F 53.6 °F 25% 29.90 in 10.0 mi East 9.2 mph - N/A   Scattered Clouds
3:55 PM 95.0 °F 92.7 °F 53.6 °F 25% 29.89 in 10.0 mi SE 6.9 mph - N/A   Scattered Clouds
4:15 PM 95.0 °F 92.7 °F 53.6 °F 25% 29.88 in 10.0 mi ESE 8.1 mph - N/A   Scattered Clouds
4:35 PM 96.8 °F 94.4 °F 53.6 °F 23% 29.88 in 10.0 mi ESE 6.9 mph 18.4 mph N/A   Scattered Clouds
4:55 PM 93.2 °F 90.8 °F 53.6 °F 26% 29.87 in 10.0 mi East 6.9 mph - N/A   Scattered Clouds
5:15 PM 91.4 °F 89.4 °F 55.4 °F 29% 29.87 in 10.0 mi ESE 9.2 mph - N/A   Clear
5:35 PM 93.2 °F 90.8 °F 53.6 °F 26% 29.86 in 10.0 mi East 8.1 mph - N/A   Clear
5:55 PM 93.2 °F 91.3 °F 55.4 °F 28% 29.86 in 10.0 mi ESE 9.2 mph - N/A   Scattered Clouds
6:15 PM 93.2 °F 91.3 °F 55.4 °F 28% 29.86 in 10.0 mi East 3.5 mph - N/A   Scattered Clouds
6:35 PM 91.4 °F 89.4 °F 55.4 °F 29% 29.86 in 10.0 mi ESE 9.2 mph - N/A   Scattered Clouds
6:55 PM 91.4 °F 89.1 °F 53.6 °F 28% 29.86 in 10.0 mi ESE 5.8 mph - N/A   Clear
7:15 PM 89.6 °F 87.3 °F 53.6 °F 29% 29.87 in 10.0 mi SSE 3.5 mph - N/A   Clear
7:35 PM 89.6 °F 87.7 °F 55.4 °F 31% 29.87 in 10.0 mi SE 3.5 mph - N/A   Clear
7:55 PM 87.8 °F 86.1 °F 55.4 °F 33% 29.87 in 10.0 mi SE 3.5 mph - N/A   Clear
8:15 PM 86.0 °F 84.5 °F 55.4 °F 35% 29.87 in 10.0 mi Calm Calm - N/A   Clear
8:35 PM 86.0 °F 84.5 °F 55.4 °F 35% 29.88 in 10.0 mi Calm Calm - N/A   Clear
8:55 PM 86.0 °F 84.9 °F 57.2 °F 37% 29.89 in 10.0 mi SE 3.5 mph - N/A   Clear
9:15 PM 86.0 °F 84.9 °F 57.2 °F 37% 29.89 in 10.0 mi Calm Calm - N/A   Scattered Clouds
9:35 PM 86.0 °F 85.4 °F 59.0 °F 40% 29.90 in 10.0 mi SSE 4.6 mph - N/A   Scattered Clouds
9:55 PM 86.0 °F 84.9 °F 57.2 °F 37% 29.91 in 10.0 mi SSE 3.5 mph - N/A   Scattered Clouds
10:15 PM 84.2 °F 83.8 °F 59.0 °F 42% 29.91 in 10.0 mi SE 3.5 mph - N/A   Scattered Clouds
10:35 PM 84.2 °F 83.8 °F 59.0 °F 42% 29.92 in 10.0 mi SE 3.5 mph - N/A   Scattered Clouds
10:55 PM 84.2 °F 83.5 °F 57.2 °F 40% 29.92 in 10.0 mi SSE 5.8 mph - N/A   Clear
11:15 PM 82.4 °F 82.5 °F 59.0 °F 45% 29.92 in 10.0 mi SSE 6.9 mph - N/A   Clear
11:35 PM 82.4 °F 82.5 °F 59.0 °F 45% 29.92 in 10.0 mi South 5.8 mph - N/A   Clear
11:55 PM 80.6 °F 81.5 °F 60.8 °F 51% 29.93 in 10.0 mi South 4.6 mph - N/A   Clear